Dallas Love Field Dallas US
ICAO: KDAL
IATA: DAL
Category: Large
Scheduled Services: Yes

Elevation: 487 ft
TransAlt. 18000 ft.

Airport Communications:
RGNL APP:124.3
ATIS:120.15
CLNC DEL:127.9
RGNL DEP:118.55
GND:121.75
FORT WORTH RDO:122.3
LOVE TWR:118.7
UNICOM:122.95

KDAL Zoom In..

If you have problems with the map follow the link
https://www.worldairports.se/pages/airport.php?
ICAO=KDAL

Runways:

(A) RW 13L length 7752 ft width 150 ft
ILS 111.50 / hdg 130

(B) RW 13R length 8800 ft width 150 ft
ILS 111.10 / hdg 130

(C) RW 18 length 6147 ft width 151 ft
---- / hdg 180

(D) RW 31L length 8800 ft width 150 ft
ILS 111.10 / hdg 310

(E) RW 31R length 7752 ft width 150 ft
ILS 111.50 / hdg 310

(F) RW 36 length 6147 ft width 151 ft
---- / hdg 360

Location; KDAL
Day. 17 / Time. 01.53 Zulu
* Altimeter: 30.08
* Temperature: 16° c. 60.8°f.
* Wind from: 170° Speed 12 kn.
Dewpoint: 03° c.
Visibility: 10 Statute Miles.
Clouds: Clear (automated report).

KDAL 170153Z 17012KT 10SM CLR 16/03 A3008 RMK AO2 SLP182 T01610033


Wind From 170°
Speed 12 kn.

 
 
jpsmedia.com for Web Design worldairports.se 2018   terms of use